| time (UTC) | temp F | wind direction | speed MPH | gust MPH | rain 1hr in | rain 24hr in | rain mn in | humidity % | barometer mb |
| 20260906120018 | 76 | 169 | 0.0 | 0.0 | 0.00 | 0.00 | 0.00 | 85 | 1010.8 |
| 20260906114517 | 77 | 169 | 0.0 | 0.0 | 0.00 | 0.00 | 0.00 | 84 | 1010.4 |
| 20260906113015 | 77 | 169 | 0.0 | 0.0 | 0.00 | 0.00 | 0.00 | 84 | 1010.5 |
| 20260906111512 | 78 | 169 | 0.0 | 0.0 | 0.00 | 0.00 | 0.00 | 82 | 1010.4 |
| 20260906110010 | 78 | 169 | 0.0 | 0.0 | 0.00 | 0.00 | 0.00 | 81 | 1010.3 |
| 20260906104518 | 79 | 169 | 0.0 | 0.0 | 0.00 | 0.00 | 0.00 | 80 | 1010.3 |
| 20260906103020 | 79 | 169 | 0.0 | 0.0 | 0.00 | 0.00 | 0.00 | 80 | 1010.3 |
| 20260906101505 | 80 | 169 | 0.0 | 0.0 | 0.00 | 0.00 | 0.00 | 79 | 1010.1 |
| 20260906100009 | 80 | 169 | 0.0 | 0.0 | 0.00 | 0.00 | 0.00 | 78 | 1010.0 |
| 20260906094503 | 80 | 185 | 0.0 | 0.0 | 0.00 | 0.00 | 0.00 | 78 | 1010.0 |
| 20260906093100 | 80 | 182 | 0.0 | 0.0 | 0.00 | 0.00 | 0.00 | 77 | 1010.0 |
| 20260906091559 | 81 | 208 | 0.0 | 3.0 | 0.00 | 0.00 | 0.00 | 77 | 1009.9 |
| 20260906090058 | 81 | 192 | 0.0 | 3.0 | 0.00 | 0.00 | 0.00 | 77 | 1010.0 |
| 20260906084600 | 81 | 186 | 0.0 | 4.0 | 0.00 | 0.00 | 0.00 | 76 | 1010.0 |
| 20260906083055 | 82 | 231 | 0.0 | 5.0 | 0.00 | 0.00 | 0.00 | 76 | 1010.0 |
| 20260906081557 | 82 | 166 | 0.0 | 4.0 | 0.00 | 0.00 | 0.00 | 77 | 1010.0 |
| 20260906080056 | 82 | 139 | 1.0 | 5.0 | 0.00 | 0.00 | 0.00 | 76 | 1010.1 |
| 20260906074553 | 82 | 158 | 0.0 | 6.0 | 0.00 | 0.00 | 0.00 | 77 | 1010.2 |
| 20260906073148 | 82 | 155 | 1.0 | 5.0 | 0.00 | 0.00 | 0.00 | 77 | 1010.5 |
| 20260906071547 | 82 | 234 | 0.0 | 3.0 | 0.00 | 0.00 | 0.00 | 77 | 1010.5 |
| 20260906070045 | 82 | 166 | 1.0 | 5.0 | 0.00 | 0.00 | 0.00 | 76 | 1010.8 |
| 20260906064543 | 82 | 160 | 1.0 | 2.0 | 0.00 | 0.00 | 0.00 | 76 | 1010.9 |
| 20260906063046 | 82 | 156 | 0.0 | 4.0 | 0.00 | 0.00 | 0.00 | 75 | 1011.0 |
| 20260906061542 | 82 | 139 | 0.0 | 3.0 | 0.00 | 0.00 | 0.00 | 75 | 1010.8 |
| 20260906060040 | 82 | 142 | 1.0 | 3.0 | 0.00 | 0.00 | 0.00 | 75 | 1010.9 |
| 20260906054558 | 82 | 140 | 0.0 | 2.0 | 0.00 | 0.00 | 0.00 | 74 | 1011.1 |
| 20260906053037 | 82 | 129 | 0.0 | 5.0 | 0.00 | 0.00 | 0.00 | 73 | 1011.0 |
| 20260906051537 | 83 | 115 | 0.0 | 4.0 | 0.00 | 0.00 | 0.00 | 73 | 1011.1 |
| 20260906050039 | 83 | 144 | 1.0 | 5.0 | 0.00 | 0.00 | 0.00 | 73 | 1011.2 |
| 20260906044536 | 83 | 119 | 1.0 | 4.0 | 0.00 | 0.00 | 0.00 | 72 | 1011.4 |
| 20260906043033 | 83 | 121 | 2.0 | 8.0 | 0.00 | 0.00 | 0.00 | 71 | 1011.3 |
| 20260906041532 | 83 | 106 | 2.0 | 7.0 | 0.00 | 0.00 | 0.00 | 70 | 1011.2 |
| 20260906040044 | 84 | 110 | 1.0 | 5.0 | 0.00 | 0.00 | 0.00 | 68 | 1011.1 |
| 20260906034545 | 84 | 155 | 3.0 | 10.0 | 0.00 | 0.00 | 0.00 | 67 | 1011.1 |
| 20260906033031 | 85 | 95 | 4.0 | 8.0 | 0.00 | 0.00 | 0.00 | 66 | 1011.1 |
| 20260906031558 | 85 | 75 | 2.0 | 7.0 | 0.00 | 0.00 | 0.00 | 65 | 1011.0 |
| 20260906030029 | 86 | 101 | 2.0 | 6.0 | 0.00 | 0.00 | 0.00 | 62 | 1010.8 |
| 20260906024550 | 87 | 78 | 2.0 | 6.0 | 0.00 | 0.00 | 0.00 | 59 | 1010.5 |
| 20260906023027 | 87 | 116 | 2.0 | 9.0 | 0.00 | 0.00 | 0.00 | 57 | 1010.1 |
| 20260906021526 | 88 | 44 | 3.0 | 8.0 | 0.00 | 0.00 | 0.00 | 56 | 1009.8 |
| 20260906020028 | 88 | 148 | 6.0 | 14.0 | 0.00 | 0.00 | 0.00 | 55 | 1009.5 |
| 20260906014526 | 89 | 130 | 2.0 | 8.0 | 0.00 | 0.00 | 0.00 | 55 | 1009.2 |
| 20260906013024 | 90 | 86 | 4.0 | 10.0 | 0.00 | 0.00 | 0.00 | 53 | 1009.2 |
| 20260906011524 | 90 | 77 | 3.0 | 10.0 | 0.00 | 0.00 | 0.00 | 53 | 1008.9 |
| 20260906010040 | 91 | 103 | 3.0 | 8.0 | 0.00 | 0.00 | 0.00 | 52 | 1008.9 |
| 20260906004523 | 92 | 107 | 3.0 | 9.0 | 0.00 | 0.00 | 0.00 | 51 | 1008.9 |
| 20260906003022 | 93 | 115 | 4.0 | 10.0 | 0.00 | 0.00 | 0.00 | 50 | 1008.9 |
| 20260906001529 | 93 | 40 | 3.0 | 9.0 | 0.00 | 0.00 | 0.00 | 49 | 1008.8 |
| 20260906000022 | 94 | 140 | 3.0 | 10.0 | 0.00 | 0.00 | 0.00 | 47 | 1008.8 |
| 20260905234520 | 96 | 58 | 3.0 | 7.0 | 0.00 | 0.00 | 0.00 | 42 | 1008.6 |
| 20260905233019 | 96 | 112 | 5.0 | 9.0 | 0.00 | 0.00 | 0.00 | 39 | 1008.5 |
| 20260905231517 | 96 | 346 | 1.0 | 4.0 | 0.00 | 0.00 | 0.00 | 40 | 1008.5 |
| 20260905230030 | 97 | 141 | 2.0 | 9.0 | 0.00 | 0.00 | 0.00 | 39 | 1008.5 |
| 20260905224519 | 98 | 146 | 3.0 | 9.0 | 0.00 | 0.00 | 0.00 | 39 | 1008.5 |
| 20260905223017 | 98 | 315 | 0.0 | 7.0 | 0.00 | 0.00 | 0.00 | 39 | 1008.5 |
| 20260905221513 | 97 | 119 | 1.0 | 6.0 | 0.00 | 0.00 | 0.00 | 39 | 1008.6 |
| 20260905220012 | 97 | 80 | 1.0 | 6.0 | 0.00 | 0.00 | 0.00 | 41 | 1008.6 |
| 20260905214511 | 95 | 239 | 0.0 | 7.0 | 0.00 | 0.00 | 0.00 | 43 | 1008.7 |
| 20260905213009 | 95 | 198 | 1.0 | 6.0 | 0.00 | 0.00 | 0.00 | 42 | 1008.9 |
| 20260905211518 | 96 | 136 | 0.0 | 4.0 | 0.00 | 0.00 | 0.00 | 40 | 1009.1 |
| 20260905210005 | 98 | 91 | 2.0 | 8.0 | 0.00 | 0.00 | 0.00 | 39 | 1009.3 |
| 20260905204504 | 98 | 22 | 3.0 | 9.0 | 0.00 | 0.00 | 0.00 | 40 | 1009.4 |
| 20260905203118 | 97 | 206 | 2.0 | 7.0 | 0.00 | 0.00 | 0.00 | 41 | 1009.7 |
| 20260905201605 | 96 | 25 | 0.0 | 5.0 | 0.00 | 0.00 | 0.00 | 43 | 1009.9 |
| 20260905200058 | 95 | 121 | 0.0 | 7.0 | 0.00 | 0.00 | 0.00 | 43 | 1010.1 |
| 20260905194547 | 96 | 47 | 0.0 | 6.0 | 0.00 | 0.00 | 0.00 | 44 | 1010.3 |
| 20260905193043 | 97 | 121 | 3.0 | 7.0 | 0.00 | 0.00 | 0.00 | 42 | 1010.6 |
| 20260905191540 | 96 | 173 | 2.0 | 5.0 | 0.00 | 0.00 | 0.00 | 44 | 1010.9 |
| 20260905190037 | 96 | 186 | 2.0 | 9.0 | 0.00 | 0.00 | 0.00 | 45 | 1011.1 |
| 20260905184534 | 95 | 157 | 4.0 | 13.0 | 0.00 | 0.00 | 0.00 | 46 | 1011.4 |
| 20260905183036 | 95 | 223 | 1.0 | 7.0 | 0.00 | 0.00 | 0.00 | 47 | 1011.7 |
| 20260905181533 | 95 | 134 | 5.0 | 9.0 | 0.00 | 0.00 | 0.00 | 46 | 1011.9 |
| 20260905180030 | 95 | 347 | 1.0 | 7.0 | 0.00 | 0.00 | 0.00 | 48 | 1012.1 |
| 20260905174529 | 94 | 189 | 2.0 | 9.0 | 0.00 | 0.00 | 0.00 | 48 | 1012.4 |
| 20260905173049 | 94 | 148 | 3.0 | 7.0 | 0.00 | 0.00 | 0.00 | 50 | 1012.6 |
| 20260905171524 | 94 | 124 | 4.0 | 11.0 | 0.00 | 0.00 | 0.00 | 51 | 1012.7 |
| 20260905170019 | 93 | 80 | 1.0 | 9.0 | 0.00 | 0.00 | 0.00 | 53 | 1012.9 |
| 20260905164516 | 92 | 102 | 3.0 | 10.0 | 0.00 | 0.00 | 0.00 | 55 | 1013.0 |
| 20260905163014 | 91 | 155 | 4.0 | 10.0 | 0.00 | 0.00 | 0.00 | 55 | 1013.0 |
| 20260905161509 | 90 | 136 | 2.0 | 5.0 | 0.00 | 0.00 | 0.00 | 61 | 1013.1 |
| 20260905160006 | 89 | 173 | 2.0 | 5.0 | 0.00 | 0.00 | 0.00 | 63 | 1012.9 |
| 20260905154504 | 89 | 176 | 3.0 | 7.0 | 0.00 | 0.00 | 0.00 | 63 | 1012.9 |
| 20260905153100 | 88 | 169 | 3.0 | 7.0 | 0.00 | 0.00 | 0.00 | 67 | 1012.9 |
| 20260905151601 | 87 | 198 | 2.0 | 7.0 | 0.00 | 0.00 | 0.00 | 68 | 1012.9 |
| 20260905150053 | 86 | 135 | 1.0 | 6.0 | 0.00 | 0.00 | 0.00 | 73 | 1013.0 |
| 20260905144552 | 84 | 188 | 2.0 | 6.0 | 0.00 | 0.01 | 0.00 | 76 | 1013.0 |
| 20260905143049 | 82 | 123 | 3.0 | 5.0 | 0.00 | 0.01 | 0.00 | 82 | 1013.0 |
| 20260905141541 | 81 | 126 | 2.0 | 5.0 | 0.00 | 0.01 | 0.00 | 88 | 1013.0 |
| 20260905140038 | 79 | 142 | 3.0 | 7.0 | 0.00 | 0.01 | 0.00 | 90 | 1012.9 |
| 20260905134550 | 78 | 157 | 1.0 | 3.0 | 0.00 | 0.02 | 0.00 | 93 | 1012.8 |
| 20260905133035 | 77 | 173 | 2.0 | 4.0 | 0.00 | 0.02 | 0.00 | 94 | 1012.8 |
| 20260905131532 | 76 | 270 | 0.0 | 1.0 | 0.00 | 0.02 | 0.00 | 94 | 1012.6 |
| 20260905130030 | 75 | 270 | 0.0 | 0.0 | 0.00 | 0.02 | 0.00 | 93 | 1012.4 |
| 20260905124537 | 74 | 270 | 0.0 | 0.0 | 0.00 | 0.03 | 0.00 | 92 | 1012.3 |
| 20260905123028 | 74 | 270 | 0.0 | 0.0 | 0.00 | 0.03 | 0.00 | 91 | 1012.1 |
| 20260905121529 | 74 | 270 | 0.0 | 0.0 | 0.00 | 0.03 | 0.00 | 90 | 1011.9 |